contact:dominique.lefevre@mio.osupytheas.fr, maurice.libes@osupytheas.fr
Project:EMSO Ligure-ouest http://www.emso-fr.org/EMSO-France
Sensor Aquadopp, line 04 Serial AQD8517 
DOI : "https://doi.org/10.17882/74513; https://doi.org/10.17882/83244" 
Title:EMSO Ligure Ouest : Data ligne ALBATROSS capteur AQUADOPP - deploiement 2021
Id,Date,Profondeur,Latitude,Longitude,X_East,Y_North,Z_Up,Amplitude_X,Amplitude_Y,Amplitude_Z,Batterie,SoundSpeed,Heading,Pitch,Roll,Pressure,Temperature,Speed,Direction
, , m, degrees North, degrees East, m.s-1, m.s-1,m.s-1, 1, 1, 1, Volt, m.s-1, degree, degree, degree, dbar, degree_C, m.s-1, degree
04,2022-05-04T21:30:00,1000.0,42.79,6.0312,0.038,0.026,-0.008,49.0,51.0,49.0,12.0,1504.5,53.4,-0.4,-0.4,967.445,13.23,0.046,55.6
04,2022-05-04T22:00:00,1000.0,42.79,6.0312,0.018,0.007,-0.007,49.0,51.0,48.0,12.0,1504.5,63.8,-0.4,-0.4,967.44,13.23,0.019,68.8
04,2022-05-04T22:30:00,1000.0,42.79,6.0312,0.021,0.013,0.01,49.0,52.0,48.0,12.0,1504.5,34.2,-0.4,-0.4,967.438,13.23,0.024,58.2
04,2022-05-04T23:00:00,1000.0,42.79,6.0312,0.007,0.014,-0.003,51.0,51.0,47.0,12.0,1504.5,38.4,-0.4,-0.4,967.414,13.23,0.015,26.6
04,2022-05-04T23:30:00,1000.0,42.79,6.0312,0.035,0.0,-0.006,47.0,50.0,49.0,12.0,1504.5,47.3,-0.4,-0.3,967.418,13.23,0.035,90.0
04,2022-05-05T00:00:00,1000.0,42.79,6.0312,0.015,-0.003,-0.006,50.0,51.0,47.0,12.0,1504.5,44.1,-0.4,-0.4,967.369,13.23,0.015,101.3
04,2022-05-05T00:30:00,1000.0,42.79,6.0312,0.013,-0.008,-0.004,51.0,53.0,49.0,12.1,1504.5,43.7,-0.4,-0.4,967.388,13.23,0.015,121.6
04,2022-05-05T01:00:00,1000.0,42.79,6.0312,0.014,0.0,0.0,48.0,50.0,53.0,12.1,1504.5,47.0,-0.4,-0.4,967.353,13.23,0.014,90.0
04,2022-05-05T01:30:00,1000.0,42.79,6.0312,0.0,-0.011,0.006,60.0,50.0,45.0,12.0,1504.5,47.3,-0.4,-0.4,967.363,13.23,0.011,180.0
04,2022-05-05T02:00:00,1000.0,42.79,6.0312,0.008,-0.004,0.013,50.0,52.0,49.0,12.0,1504.4,43.2,-0.4,-0.4,967.385,13.22,0.008,116.6
04,2022-05-05T02:30:00,1000.0,42.79,6.0312,0.007,0.0,0.002,55.0,51.0,52.0,12.0,1504.4,39.5,-0.4,-0.3,967.351,13.22,0.007,90.0
04,2022-05-05T03:00:00,1000.0,42.79,6.0312,-0.001,-0.001,-0.016,44.0,56.0,47.0,12.0,1504.5,42.3,-0.4,-0.4,967.323,13.23,0.001,225.0
04,2022-05-05T03:30:00,1000.0,42.79,6.0312,0.0,-0.006,0.001,47.0,55.0,49.0,12.0,1504.5,44.8,-0.4,-0.4,967.277,13.23,0.006,180.0
04,2022-05-05T04:00:00,1000.0,42.79,6.0312,0.007,0.002,0.004,48.0,48.0,49.0,12.0,1504.4,45.7,-0.4,-0.4,967.31,13.22,0.007,74.1
04,2022-05-05T04:30:00,1000.0,42.79,6.0312,0.001,0.009,0.003,54.0,58.0,50.0,12.0,1504.4,45.2,-0.4,-0.4,967.28,13.22,0.009,6.3
04,2022-05-05T05:00:00,1000.0,42.79,6.0312,0.005,0.009,0.005,48.0,60.0,47.0,12.0,1504.4,43.2,-0.4,-0.4,967.312,13.22,0.01,29.1
04,2022-05-05T05:30:00,1000.0,42.79,6.0312,-0.003,-0.001,0.008,47.0,51.0,48.0,12.0,1504.4,41.3,-0.4,-0.4,967.299,13.22,0.003,251.6
04,2022-05-05T06:00:00,1000.0,42.79,6.0312,-0.008,0.008,0.0,46.0,52.0,48.0,12.0,1504.4,41.8,-0.4,-0.4,967.314,13.22,0.011,315.0
04,2022-05-05T06:30:00,1000.0,42.79,6.0312,0.008,0.021,-0.003,48.0,49.0,52.0,12.0,1504.4,50.1,-0.4,-0.4,967.308,13.22,0.022,20.9
04,2022-05-05T07:00:00,1000.0,42.79,6.0312,-0.001,0.024,0.002,48.0,48.0,47.0,12.0,1504.4,51.4,-0.4,-0.3,967.302,13.22,0.024,357.6
04,2022-05-05T07:30:00,1000.0,42.79,6.0312,-0.003,0.021,0.005,49.0,53.0,49.0,12.0,1504.4,43.8,-0.4,-0.4,967.341,13.22,0.021,351.9
04,2022-05-05T08:00:00,1000.0,42.79,6.0312,-0.002,0.033,-0.002,50.0,51.0,50.0,12.0,1504.5,43.4,-0.4,-0.4,967.35,13.23,0.033,356.5
04,2022-05-05T08:30:00,1000.0,42.79,6.0312,0.003,0.022,-0.003,49.0,51.0,49.0,12.0,1504.4,44.3,-0.4,-0.4,967.373,13.22,0.022,7.8
04,2022-05-05T09:00:00,1000.0,42.79,6.0312,0.002,0.031,-0.015,52.0,53.0,49.0,12.0,1504.5,44.9,-0.4,-0.3,967.396,13.23,0.031,3.7
04,2022-05-05T09:30:00,1000.0,42.79,6.0312,0.01,0.031,0.001,52.0,56.0,51.0,12.0,1504.5,48.4,-0.4,-0.3,967.378,13.23,0.032,17.9
04,2022-05-05T10:00:00,1000.0,42.79,6.0312,0.006,0.035,0.007,51.0,56.0,48.0,12.0,1504.5,49.4,-0.4,-0.4,967.337,13.23,0.035,9.7
04,2022-05-05T10:30:00,1000.0,42.79,6.0312,0.003,0.045,0.023,51.0,52.0,50.0,12.0,1504.5,53.4,-0.4,-0.4,967.344,13.24,0.045,3.8
04,2022-05-05T11:00:00,1000.0,42.79,6.0312,0.01,0.046,-0.011,53.0,52.0,53.0,12.0,1504.5,53.1,-0.4,-0.4,967.338,13.24,0.047,12.3
04,2022-05-05T11:30:00,1000.0,42.79,6.0312,0.009,0.039,0.006,52.0,53.0,51.0,12.0,1504.5,56.3,-0.4,-0.3,967.318,13.24,0.04,13.0
04,2022-05-05T12:00:00,1000.0,42.79,6.0312,0.021,0.044,0.005,53.0,56.0,52.0,12.0,1504.5,58.4,-0.4,-0.4,967.301,13.24,0.048,25.5
04,2022-05-05T12:30:00,1000.0,42.79,6.0312,0.022,0.027,0.0,52.0,54.0,51.0,12.0,1504.5,56.6,-0.4,-0.3,967.3,13.24,0.034,39.2
04,2022-05-05T13:00:00,1000.0,42.79,6.0312,0.028,0.019,-0.01,51.0,55.0,52.0,12.0,1504.6,74.7,-0.4,-0.4,967.291,13.25,0.033,55.8
04,2022-05-05T13:30:00,1000.0,42.79,6.0312,0.013,0.024,0.008,55.0,53.0,54.0,12.0,1504.6,54.8,-0.4,-0.3,967.264,13.25,0.027,28.4
04,2022-05-05T14:00:00,1000.0,42.79,6.0312,0.015,0.035,0.008,53.0,53.0,51.0,12.0,1504.6,52.9,-0.4,-0.4,967.267,13.25,0.038,23.2
04,2022-05-05T14:30:00,1000.0,42.79,6.0312,0.02,-0.001,-0.001,54.0,55.0,54.0,12.0,1504.6,84.6,-0.4,-0.4,967.268,13.25,0.02,92.9
04,2022-05-05T15:00:00,1000.0,42.79,6.0312,0.015,0.008,0.019,53.0,54.0,52.0,12.0,1504.6,77.7,-0.4,-0.4,967.274,13.25,0.017,61.9
04,2022-05-05T15:30:00,1000.0,42.79,6.0312,0.03,0.008,0.003,51.0,54.0,50.0,12.0,1504.5,69.5,-0.4,-0.4,967.24,13.24,0.031,75.1
04,2022-05-05T16:00:00,1000.0,42.79,6.0312,0.021,0.0,-0.001,51.0,54.0,52.0,12.0,1504.5,79.2,-0.4,-0.4,967.237,13.24,0.021,90.0
04,2022-05-05T16:30:00,1000.0,42.79,6.0312,0.03,0.003,0.018,53.0,55.0,50.0,12.0,1504.5,73.4,-0.4,-0.4,967.218,13.24,0.03,84.3
04,2022-05-05T17:00:00,1000.0,42.79,6.0312,0.019,0.005,0.006,49.0,53.0,54.0,12.0,1504.5,72.3,-0.4,-0.4,967.275,13.24,0.019,75.3
04,2022-05-05T17:30:00,1000.0,42.79,6.0312,0.022,-0.005,0.002,51.0,54.0,51.0,12.0,1504.5,73.9,-0.4,-0.4,967.264,13.24,0.022,102.8
04,2022-05-05T18:00:00,1000.0,42.79,6.0312,0.019,0.008,0.011,53.0,56.0,52.0,12.0,1504.5,78.8,-0.4,-0.4,967.28,13.24,0.02,67.2
04,2022-05-05T18:30:00,1000.0,42.79,6.0312,0.008,0.014,0.011,53.0,55.0,49.0,12.0,1504.5,80.7,-0.4,-0.4,967.316,13.24,0.016,29.7
04,2022-05-05T19:00:00,1000.0,42.79,6.0312,0.016,0.012,0.023,59.0,55.0,51.0,12.0,1504.5,81.8,-0.4,-0.3,967.325,13.23,0.02,53.1
04,2022-05-05T19:30:00,1000.0,42.79,6.0312,0.004,-0.002,0.008,51.0,53.0,55.0,12.0,1504.5,76.3,-0.4,-0.3,967.369,13.23,0.004,116.6
04,2022-05-05T20:00:00,1000.0,42.79,6.0312,0.004,0.001,0.013,52.0,55.0,55.0,12.0,1504.5,76.7,-0.4,-0.4,967.408,13.23,0.004,76.0
04,2022-05-05T20:30:00,1000.0,42.79,6.0312,0.001,0.004,-0.002,56.0,54.0,52.0,12.0,1504.5,76.1,-0.4,-0.4,967.407,13.23,0.004,14.0
04,2022-05-05T21:00:00,1000.0,42.79,6.0312,-0.004,0.003,-0.005,58.0,51.0,50.0,12.0,1504.5,73.6,-0.4,-0.3,967.422,13.23,0.005,306.9
